Location: ??
(34.9170°N, 135.5016°E)
Time: 17:55:04
(UTC+00:00)

Cosmos 2082 Rocket - Pass Details

Date: 29 October 2020
Orbit: 833 x 854 km, 71.0° (Epoch: 29 November)

Event Time Altitude Azimuth Distance (km) Brightness Sun altitude
Exits shadow 20:39:22 10° 278° (W) 2,444 3.9 -8.3°
Reaches altitude 10° 20:39:24 10° 278° (W) 2,440 3.9 -8.3°
Maximum altitude 20:42:00 13° 307° (NW) 2,216 3.8 -7.8°
Drops below altitude 10° 20:44:37 10° 335° (NNW) 2,447 4.3 -7.3°
Sets 20:48:32 0° 2° (N) 3,389 5.2 -6.5°
